TimeAKDT,TemperatureF,Dew PointF,Humidity,Sea Level PressureIn,VisibilityMPH,Wind Direction,Wind SpeedMPH,Gust SpeedMPH,PrecipitationIn,Events,Conditions,WindDirDegrees,DateUTC
12:46 AM,48.2,48.2,100,30.07,10.0,Calm,Calm,-,N/A,,Overcast,0,2012-10-10 08:46:00
12:53 AM,48.9,48.0,97,30.07,10.0,Calm,Calm,-,N/A,,Overcast,0,2012-10-10 08:53:00
1:22 AM,48.2,48.2,100,30.06,10.0,WNW,3.5,-,N/A,,Overcast,300,2012-10-10 09:22:00
1:39 AM,48.2,48.2,100,30.07,5.0,Calm,Calm,-,0.00,,Overcast,0,2012-10-10 09:39:00
1:53 AM,48.0,48.0,100,30.07,3.0,SSE,3.5,-,0.00,Rain,Light Rain,150,2012-10-10 09:53:00
2:05 AM,48.2,48.2,100,30.07,6.0,SSE,5.8,-,0.00,,Overcast,160,2012-10-10 10:05:00
2:15 AM,48.2,48.2,100,30.07,5.0,SSE,3.5,-,0.00,,Overcast,150,2012-10-10 10:15:00
2:53 AM,48.0,48.0,100,30.07,3.0,SE,4.6,-,0.00,Rain,Light Rain,140,2012-10-10 10:53:00
3:25 AM,48.2,48.2,100,30.07,10.0,Calm,Calm,-,0.00,,Overcast,0,2012-10-10 11:25:00
3:53 AM,46.9,46.0,97,30.07,10.0,Calm,Calm,-,0.00,,Overcast,0,2012-10-10 11:53:00
4:42 AM,48.2,46.4,93,30.07,10.0,Calm,Calm,-,N/A,,Overcast,0,2012-10-10 12:42:00
4:53 AM,46.4,46.4,100,30.07,10.0,East,4.6,-,N/A,,Overcast,100,2012-10-10 12:53:00
5:13 AM,46.4,46.4,100,30.07,10.0,ESE,3.5,-,N/A,,Overcast,110,2012-10-10 13:13:00
5:53 AM,46.0,45.0,96,30.07,10.0,SE,5.8,-,N/A,,Mostly Cloudy,130,2012-10-10 13:53:00
5:58 AM,46.4,44.6,93,30.07,10.0,SE,4.6,-,N/A,,Overcast,130,2012-10-10 13:58:00
6:49 AM,46.4,44.6,93,30.07,10.0,SE,3.5,-,N/A,,Overcast,130,2012-10-10 14:49:00
6:53 AM,46.9,45.0,93,30.07,10.0,SE,3.5,-,N/A,,Overcast,130,2012-10-10 14:53:00
7:53 AM,46.9,46.0,97,30.07,9.0,Calm,Calm,-,N/A,,Overcast,0,2012-10-10 15:53:00
8:53 AM,46.9,46.0,97,30.06,10.0,Calm,Calm,-,N/A,,Overcast,0,2012-10-10 16:53:00
9:46 AM,48.2,46.4,93,30.05,10.0,Calm,Calm,-,N/A,,Mostly Cloudy,0,2012-10-10 17:46:00
9:53 AM,48.9,46.0,90,30.04,10.0,Calm,Calm,-,N/A,,Scattered Clouds,0,2012-10-10 17:53:00
10:02 AM,48.2,46.4,93,30.03,10.0,Calm,Calm,-,N/A,,Mostly Cloudy,0,2012-10-10 18:02:00
10:53 AM,48.9,46.0,90,30.03,10.0,NW,5.8,-,N/A,,Scattered Clouds,320,2012-10-10 18:53:00
11:34 AM,50.0,46.4,87,30.05,10.0,WSW,8.1,-,N/A,,Mostly Cloudy,250,2012-10-10 19:34:00
11:53 AM,48.9,46.0,90,30.05,10.0,West,5.8,-,N/A,,Mostly Cloudy,260,2012-10-10 19:53:00
12:53 PM,50.0,46.0,86,30.04,10.0,West,4.6,-,N/A,,Overcast,270,2012-10-10 20:53:00
1:53 PM,50.0,45.0,83,30.03,10.0,West,4.6,-,N/A,,Overcast,260,2012-10-10 21:53:00
2:53 PM,50.0,45.0,83,30.02,10.0,SW,5.8,-,N/A,,Overcast,220,2012-10-10 22:53:00
3:38 PM,48.2,44.6,87,30.00,10.0,SW,6.9,-,N/A,,Overcast,220,2012-10-10 23:38:00
3:53 PM,48.9,45.0,86,29.99,10.0,WSW,5.8,-,N/A,,Overcast,240,2012-10-10 23:53:00
4:15 PM,48.2,44.6,87,29.99,10.0,SSW,3.5,-,N/A,,Overcast,210,2012-10-11 00:15:00
4:53 PM,48.0,44.1,86,29.98,9.0,Calm,Calm,-,N/A,,Overcast,0,2012-10-11 00:53:00
5:53 PM,48.0,45.0,89,29.96,10.0,Calm,Calm,-,N/A,,Overcast,0,2012-10-11 01:53:00
6:53 PM,48.0,46.0,93,29.96,10.0,Calm,Calm,-,N/A,,Overcast,0,2012-10-11 02:53:00
7:53 PM,46.9,46.0,97,29.95,10.0,Calm,Calm,-,N/A,,Overcast,0,2012-10-11 03:53:00
8:04 PM,46.4,46.4,100,29.94,7.0,East,3.5,-,N/A,,Overcast,80,2012-10-11 04:04:00
8:46 PM,46.4,46.4,100,29.93,10.0,Calm,Calm,-,N/A,,Overcast,0,2012-10-11 04:46:00
8:53 PM,46.9,46.0,97,29.93,10.0,Calm,Calm,-,N/A,,Overcast,0,2012-10-11 04:53:00
8:56 PM,46.4,46.4,100,29.93,10.0,Calm,Calm,-,N/A,,Overcast,0,2012-10-11 04:56:00
9:03 PM,46.4,46.4,100,29.92,10.0,Calm,Calm,-,N/A,,Overcast,0,2012-10-11 05:03:00
9:29 PM,46.4,46.4,100,29.92,10.0,Calm,Calm,-,N/A,,Overcast,0,2012-10-11 05:29:00
9:53 PM,46.9,46.0,97,29.93,8.0,East,3.5,-,N/A,,Overcast,80,2012-10-11 05:53:00
10:53 PM,46.9,46.0,97,29.90,10.0,Calm,Calm,-,N/A,,Overcast,0,2012-10-11 06:53:00
11:53 PM,46.9,46.0,97,29.90,10.0,Calm,Calm,-,N/A,,Overcast,0,2012-10-11 07:53:00